Location: Unspecified
(35.7250°N, 0.0000°E)
Time: 01:25:45
(UTC+00:00)

Explorer 7 - Pass Details

Date: 25 June 2019
Orbit: 485 x 680 km, 50.3° (Epoch: 22 July)

Event Time Altitude Azimuth Distance (km) Brightness Sun altitude
Rises 05:33:08 0° 186° (S) 2,610 10.0 7.8°
Reaches altitude 10° 05:36:02 10° 163° (SSE) 1,764 9.4 8.4°
Maximum altitude 05:38:23 15° 126° (SE) 1,497 9.6 8.8°
Drops below altitude 10° 05:40:49 10° 91° (E) 1,837 11.0 9.3°
Sets 05:43:55 0° 68° (ENE) 2,786 12.8 9.9°
